Location: Cheyres
(46.8153°N, 6.7877°E)
Time: 15:07:54
(UTC+00:00)

Cosmos 990 Rocket - Pass Details

Date: 29 September 2021
Orbit: 746 x 769 km, 74.0° (Epoch: 24 October)

Event Time Altitude Azimuth Distance (km) Brightness Sun altitude
Rises 18:09:13 0° 165° (SSE) 3,183 7.0 -9.9°
Reaches altitude 10° 18:11:55 10° 153° (SSE) 2,267 6.1 -10.3°
Maximum altitude 18:16:03 25° 99° (E) 1,485 4.9 -11.0°
Drops below altitude 10° 18:20:14 10° 45° (NE) 2,293 6.1 -11.7°
Sets 18:22:58 0° 33° (NNE) 3,228 7.0 -12.2°
